Weather History for Austin, MN

Change the Weather History Date:

Thursday, May 9, 2013

  Actual Average Record
Temperature  
Mean Temperature 54 °F -  
Max Temperature 60 °F 63 °F 84 °F (2004)
Min Temperature 48 °F 43 °F 33 °F (1999)
Degree Days  
Heating Degree Days 11    
Growing Degree Days 4 (Base 50)    
Moisture  
Dew Point 52 °F    
Average Humidity 89    
Maximum Humidity 94    
Minimum Humidity 77    
Precipitation  
Precipitation 0.51 in - - ()
Sea Level Pressure  
Sea Level Pressure 29.94 in    
Wind  
Wind Speed 6 mph (NE)    
Max Wind Speed 21 mph    
Max Gust Speed 28 mph    
Visibility 9 miles    
Events Rain    
Averages and records for this station are not official NWS values.
T = Trace of Precipitation, MM = Missing Value Source: NWS Daily Summary

Daily Weather History Graph

Daily Weather History Graph

Search for Another Location

Airport:

Trip Planner

Search our weather history database for the weather conditions in past years. The results will help you decide how hot, cold, wet, or windy it might be!

Date:

Astronomy

May. 09, 2013 Rise Set
Actual Time 5:53 AM CDT 8:23 PM CDT
Civil Twilight 5:20 AM CDT 8:56 PM CDT
Nautical Twilight 4:40 AM CDT 9:37 PM CDT
Astronomical Twilight 3:54 AM CDT 10:23 PM CDT
Moon 5:39 AM CDT (5/9) 8:19 PM CDT (5/9)
Length of Visible Light 15h 35m
Length of Day
14h 30m
Waning Crescent, 0% of the Moon is Illuminated
May 9
Waning Crescent
May 9
New
May 17
First Quarter
May 24
Full
May 31
Last Quarter

Hourly Weather History & Observations

Time (CDT) Temp. Dew Point Humidity Pressure Visibility Wind Dir Wind Speed Gust Speed Precip Events Conditions
12:15 AM 60.8 °F 53.6 °F 77% 29.97 in 10.0 mi Calm Calm - N/A Rain Light Rain
12:36 AM 59.0 °F 55.4 °F 88% 29.97 in 10.0 mi NE 3.5 mph - N/A Rain Light Rain
12:55 AM 59.0 °F 55.4 °F 88% 29.96 in 10.0 mi NE 3.5 mph - 0.01 in Rain Light Rain
1:16 AM 59.0 °F 53.6 °F 82% 29.96 in 10.0 mi Calm Calm - N/A Rain Light Rain
1:35 AM 57.2 °F 53.6 °F 88% 29.96 in 10.0 mi Calm Calm - N/A Rain Rain
1:56 AM 57.2 °F 53.6 °F 88% 29.96 in 10.0 mi Calm Calm - N/A Rain Light Rain
2:16 AM 57.2 °F 53.6 °F 88% 29.95 in 10.0 mi Calm Calm - 0.01 in Rain Rain
2:35 AM 57.2 °F 53.6 °F 88% 29.95 in 10.0 mi NE 3.5 mph - 0.01 in Rain Light Rain
2:56 AM 57.2 °F 53.6 °F 88% 29.94 in 10.0 mi Calm Calm - N/A   Drizzle
3:15 AM 57.2 °F 55.4 °F 94% 29.94 in 10.0 mi ENE 5.8 mph - N/A Rain Rain
3:36 AM 57.2 °F 55.4 °F 94% 29.94 in 10.0 mi NE 5.8 mph - N/A   Light Drizzle
3:55 AM 57.2 °F 53.6 °F 88% 29.94 in 10.0 mi ENE 5.8 mph - N/A Rain Light Rain
4:15 AM 57.2 °F 53.6 °F 88% 29.94 in 10.0 mi NE 4.6 mph - 0.01 in Rain Rain
4:36 AM 57.2 °F 53.6 °F 88% 29.93 in 10.0 mi ENE 5.8 mph - 0.01 in   Overcast
4:55 AM 57.2 °F 53.6 °F 88% 29.93 in 10.0 mi ENE 5.8 mph - 0.01 in   Overcast
5:15 AM 57.2 °F 53.6 °F 88% 29.92 in 7.0 mi ENE 5.8 mph - N/A   Overcast
5:36 AM 57.2 °F 53.6 °F 88% 29.92 in 10.0 mi ENE 8.1 mph - N/A   Overcast
5:55 AM 57.2 °F 53.6 °F 88% 29.92 in 10.0 mi ENE 8.1 mph - N/A   Overcast
6:15 AM 57.2 °F 53.6 °F 88% 29.93 in 7.0 mi ENE 5.8 mph - N/A Rain Rain
6:36 AM 57.2 °F 53.6 °F 88% 29.93 in 10.0 mi ENE 4.6 mph - N/A   Overcast
6:55 AM 57.2 °F 53.6 °F 88% 29.93 in 10.0 mi ENE 5.8 mph - N/A   Overcast
7:15 AM 57.2 °F 53.6 °F 88% 29.93 in 10.0 mi ENE 5.8 mph - N/A Rain Light Rain
7:36 AM 57.2 °F 53.6 °F 88% 29.93 in 10.0 mi East 4.6 mph - N/A   Overcast
7:55 AM 57.2 °F 53.6 °F 88% 29.93 in 10.0 mi East 4.6 mph - N/A   Overcast
8:15 AM 57.2 °F 53.6 °F 88% 29.94 in 7.0 mi East 4.6 mph - N/A   Drizzle
8:36 AM 57.2 °F 53.6 °F 88% 29.93 in 7.0 mi East 5.8 mph - N/A   Overcast
8:55 AM 57.2 °F 55.4 °F 94% 29.93 in 7.0 mi East 4.6 mph - N/A   Light Drizzle
9:15 AM 57.2 °F 55.4 °F 94% 29.94 in 4.0 mi East 3.5 mph - N/A Rain Rain
9:36 AM 57.2 °F 55.4 °F 94% 29.93 in 2.5 mi East 4.6 mph - 0.05 in Rain Rain
9:55 AM 57.2 °F 55.4 °F 94% 29.93 in 4.0 mi East 5.8 mph - 0.06 in Rain Light Rain
10:36 AM 57.2 °F 55.4 °F 94% 29.93 in 4.0 mi NE 4.6 mph - 0.04 in Rain Rain
10:56 AM 57.2 °F 55.4 °F 94% 29.93 in 4.0 mi NE 3.5 mph - N/A Rain Rain
11:15 AM 57.2 °F 55.4 °F 94% 29.93 in 5.0 mi NNE 4.6 mph - 0.03 in Rain Rain
11:36 AM 57.2 °F 55.4 °F 94% 29.93 in 5.0 mi NNE 4.6 mph - 0.05 in Rain Rain
12:15 PM 57.2 °F 55.4 °F 94% 29.93 in 5.0 mi NNE 5.8 mph - 0.09 in Rain Heavy Rain
12:36 PM 57.2 °F 55.4 °F 94% 29.93 in 7.0 mi NNE 10.4 mph 16.1 mph 0.16 in Rain Heavy Rain
12:56 PM 57.2 °F 53.6 °F 88% 29.93 in 7.0 mi North 9.2 mph - N/A Rain Rain
1:15 PM 55.4 °F 53.6 °F 94% 29.93 in 7.0 mi NNE 10.4 mph - 0.04 in Rain Rain
1:36 PM 55.4 °F 53.6 °F 94% 29.93 in 10.0 mi NNE 12.7 mph 18.4 mph 0.07 in Rain Rain
1:55 PM 55.4 °F 53.6 °F 94% 29.93 in 7.0 mi NNE 13.8 mph 19.6 mph 0.09 in Rain Light Rain
2:16 PM 55.4 °F 53.6 °F 94% 29.93 in 7.0 mi North - - 0.03 in Rain Rain
2:36 PM 55.4 °F 53.6 °F 94% 29.92 in 10.0 mi NNE 11.5 mph 18.4 mph 0.05 in Rain Rain
2:56 PM 55.4 °F 51.8 °F 88% 29.92 in 10.0 mi NNE 12.7 mph 21.9 mph N/A Rain Rain
3:16 PM 55.4 °F 51.8 °F 88% 29.92 in 10.0 mi NNE 15.0 mph 20.7 mph 0.01 in Rain Light Rain
3:35 PM 55.4 °F 51.8 °F 88% 29.92 in 10.0 mi NNE 15.0 mph 20.7 mph 0.02 in Rain Light Rain
3:56 PM 55.4 °F 51.8 °F 88% 29.92 in 10.0 mi NNE 15.0 mph 21.9 mph N/A Rain Rain
4:16 PM 55.4 °F 51.8 °F 88% 29.92 in 10.0 mi NNE 13.8 mph 19.6 mph 0.01 in Rain Light Rain
4:35 PM 55.4 °F 51.8 °F 88% 29.91 in 10.0 mi NNE 16.1 mph 24.2 mph 0.01 in Rain Light Rain
4:56 PM 55.4 °F 51.8 °F 88% 29.92 in 10.0 mi NNE 17.3 mph 24.2 mph N/A Rain Light Rain
5:16 PM 55.4 °F 51.8 °F 88% 29.92 in 10.0 mi NNE 18.4 mph 24.2 mph N/A Rain Light Rain
5:36 PM 55.4 °F 51.8 °F 88% 29.92 in 10.0 mi NNE 12.7 mph 25.3 mph N/A Rain Light Rain
5:55 PM 55.4 °F 51.8 °F 88% 29.91 in 10.0 mi NNE 15.0 mph 24.2 mph N/A Rain Light Rain
6:16 PM 53.6 °F 51.8 °F 94% 29.92 in 10.0 mi NNE 15.0 mph 23.0 mph N/A Rain Light Rain
6:35 PM 53.6 °F 48.2 °F 82% 29.92 in 10.0 mi NNE 20.7 mph 27.6 mph N/A Rain Light Rain
6:56 PM 53.6 °F 48.2 °F 82% 29.93 in 10.0 mi NNE 12.7 mph 24.2 mph N/A   Light Drizzle
7:16 PM 51.8 °F 48.2 °F 88% 29.94 in 10.0 mi NNE 16.1 mph 26.5 mph N/A   Light Drizzle
7:56 PM 50.0 °F 46.4 °F 87% 29.96 in 10.0 mi North 18.4 mph 24.2 mph N/A   Light Drizzle
8:15 PM 50.0 °F 46.4 °F 87% 29.96 in 10.0 mi NNE 17.3 mph 24.2 mph N/A Rain Light Rain
8:36 PM 50.0 °F 46.4 °F 87% 29.97 in 10.0 mi North 15.0 mph 18.4 mph N/A   Overcast
8:55 PM 48.2 °F 46.4 °F 93% 29.97 in 10.0 mi NNE 12.7 mph 23.0 mph N/A   Overcast
9:15 PM 48.2 °F 46.4 °F 93% 29.98 in 10.0 mi NNE 13.8 mph 23.0 mph N/A   Overcast
9:36 PM 48.2 °F 44.6 °F 87% 29.98 in 10.0 mi NNE 16.1 mph 21.9 mph N/A   Overcast
9:56 PM 48.2 °F 44.6 °F 87% 29.98 in 10.0 mi NNE 13.8 mph 24.2 mph N/A   Overcast
10:15 PM 48.2 °F 44.6 °F 87% 29.99 in 10.0 mi NNE 15.0 mph 19.6 mph N/A   Overcast
10:55 PM 48.2 °F 44.6 °F 87% 29.99 in 10.0 mi NNE 13.8 mph 19.6 mph N/A   Overcast
11:15 PM 48.2 °F 44.6 °F 87% 29.99 in 10.0 mi North 11.5 mph 17.3 mph N/A   Overcast
11:36 PM 48.2 °F 44.6 °F 87% 29.99 in 10.0 mi North 12.7 mph 18.4 mph N/A   Overcast